カタログに戻る

STARLINK-5948

運用中通信VLEO
NORAD 55991·PAYLOAD·🇺🇸 United States

打ち上げ Mar 24, 2023 から Cape Canaveral Space Force Station

Loading…

次のパス (今後24時間)

TLE

最新Source: CelesTrak SupGP

元期: Sep 14, 2026, 22:31 UTC

1 55991C 23042F   26257.93868056  .00055872  00000+0  20236-2 0  2575
2 55991  43.0024  67.4021 0001970 270.0392  61.9772 15.27551619    19

AllMySatでSTARLINK-5948をリアルタイム追跡

Download on the App Store